Regional Weather Roundup
Issued by NWS

Home | Current Version | Previous Version | Graphics & Text | Print | Product List | Glossary On
Versions: 1 2 3 4 5 6 7 8 9 10 11 12 13 14 15 16 17 18 19 20 21 22 23 24 25 26 27 28 29 30 31 32 33 34 35 36 37 38 39 40 41 42 43 44 45 46 47 48 49 50
000
ASUS43 KFSD 252202
RWRSD

WEATHER ROUNDUP FOR SOUTH DAKOTA
NATIONAL WEATHER SERVICE SIOUX FALLS SD
500 PM CDT SAT MAR 25 2017

NOTE: "FAIR" INDICATES FEW OR NO CLOUDS BELOW 12,000 FEET WITH NO
SIGNIFICANT WEATHER AND/OR OBSTRUCTIONS TO VISIBILITY.


SDZ001>005-009-010-012>017-252300-
NORTHWEST AND NORTH CENTRAL SOUTH DAKOTA

CITY           SKY/WX    TMP DP  RH WIND       PRES   REMARKS
BUFFALO          N/A     62  32  32 N14       29.80S
FAITH            N/A     62  29  28 MISG      29.84F
MOBRIDGE       MOSUNNY   57  30  35 SE18      29.89F
$$

SDZ012>016-024>037-041>051-057-063-072>074-252300-
SOUTHWEST AND SOUTH CENTRAL SOUTH DAKOTA

CITY           SKY/WX    TMP DP  RH WIND       PRES   REMARKS
RAPID CTY ARPT SUNNY     63  30  28 N7        29.82F
PIERRE         MOSUNNY   54  31  41 SE15      29.90F
CUSTER         CLOUDY    54  27  35 E8        29.87F
ELLSWORTH AFB  SUNNY     63  30  29 N6        29.82F
PHILIP         MOSUNNY   67  21  17 S16       29.82F
PINE RIDGE     MOSUNNY   69  31  24 S8        29.82F
SPEARFISH      FAIR      59  36  41 VRB6G13   29.86S
WINNER         FAIR      62  32  32 SE14G21   29.91F
$$

SDZ004>011-016>023-039-040-252300-
NORTHEAST SOUTH DAKOTA

CITY           SKY/WX    TMP DP  RH WIND       PRES   REMARKS
ABERDEEN       CLOUDY    48  32  53 E8        30.00F
WATERTOWN      CLOUDY    36  33  89 E10       30.01F
BROOKINGS      CLOUDY    40  36  86 NE10      30.00F
SISSETON         N/A     38  34  85 SE12      30.05F
$$

SDZ017-020-022-023-036>040-048>070-252300-
SOUTHEAST SOUTH DAKOTA

CITY           SKY/WX    TMP DP  RH WIND       PRES   REMARKS
SIOUX FALLS    CLOUDY    42  38  85 E13       30.00R
HURON          MOSUNNY   44  36  73 SE8       29.99F
CHAMBERLAIN    SUNNY     54  37  54 E12G18    29.95F
MITCHELL       MOSUNNY   47  36  65 NE10      30.00S
YANKTON        CLOUDY    43  37  81 NE7       29.99S
$$

ABBREVIATIONS USED IN REMARKS
   TC - TEMPERATURE IN CELSIUS
  WCI - WIND CHILL INDEX
   HX - HEAT INDEX
  VSB - VISIBILITY





USA.gov is the U.S. government's official web portal to all federal, state and local government web resources and services.